sat.trackr.live / text

‹ back to catalog

STARLINK-3867

NORAD 52587 · 2022-051BD

PAYLOAD ACTIVE UNKNOWN

§ Identity

Operator
Country
US
Launch date
2022-05-13
Launch site
AFWTR
Launch vehicle
Mass (kg)
RCS (m²)

Purposes: comms

External: N2YO · Heavens-Above · Gunter

§ Orbital elements

Epoch: 2026-09-20T03:23:01.186080Z

Period
94.01 min
Inclination
53.1607°
Eccentricity
0.0001507
Mean motion
15.31686735 rev/d
Perigee alt
469.7 km
Apogee alt
471.8 km
Semi-major
6,848.9 km
B*
1.0133e-4
RAAN
311.5278°
Arg perigee
75.1467°
Mean anomaly
284.9702°
Rev number
24,114

§ Raw data

STARLINK-38671 52587U 22051BD  26263.14098595  .00002779  00000+0  10133-3 0  99922 52587  53.1607 311.5278 0001507  75.1467 284.9702 15.31686735241140

JSON: /api/v1/satellites/52587 · /tle

For live sub-satellite position, see the globe view (requires WebGL).

§ Visibility from observer

Set your observer location to see the next 7 days of passes ≥ 10°. The values pass through the URL so the page stays shareable.

No JS? Fill the form by hand. The geolocation button needs JavaScript.